Tracking 31027 objects as of 19-Jul-2025
HD Live streaming from Space Station
objects crossing your sky now

STARLINK-32029

Track STARLINK-32029 now!
10-day predictions
STARLINK-32029 is classified as:


NORAD ID: 60145
Int'l Code: 2024-120L
Perigee: 481.6 km
Apogee: 483.2 km
Inclination: 53.2 °
Period: 94.1 minutes
Semi major axis: 6853 km
RCS: Unknown
Launch date: June 27, 2024
Source: United States (US)
Launch site: AIR FORCE EASTERN TEST RANGE (AFETR)
Your satellite tracking list
ATLAS 5 CENTAUR DEB
Track 1 satellite(s)




NASA's NSSDC Master Catalog

Two Line Element Set (TLE):
1 60145U 24120L   25199.65649605 -.00001128  00000-0 -25986-4 0  9990
2 60145  53.1609 327.0569 0001148  78.7400 281.3730 15.30181992 60463
Source of the keplerian elements: AFSPC